QPF
0.00 0.00 0.00 0.00 0.20 0.06 0.00 0.00 0.00 0.00 0.00 0.00 0.00 0.00 0.00 0.00 0.00 0.01 0.00 0.00 0.00 0.00 0.00 0.00 0.02 0.00 0.00 0.00 0.07 0.12 0.04 0.00 0.02 0.06 0.03 0.02 0.01 0.01 0.02 0.04 0.03 0.03 0.06 0.04 0.10 0.14 0.10 0.07 0.02
0.00 0.00 0.00 0.01 0.07 0.01 0.00 0.00 0.00 0.00 0.00 0.00 0.00 0.01 0.00 0.00 0.00 0.00 0.00 0.00 0.00 0.00 0.00 0.00 0.02 0.01 0.00 0.00 0.04 0.05 0.03 0.02 0.02 0.03 0.00 0.01 0.01 0.01 0.02 0.01 0.00 0.00 0.02 0.04 0.10 0.08 0.08 0.02 0.01
0.00 0.00 0.02 0.05 0.01 0.00 0.00 0.00 0.00 0.00 0.01 0.01 0.00 0.00 0.00 0.00 0.00 0.00 0.00 0.00 0.00 0.00 0.00 0.00 0.01 0.00 0.01 0.03 0.04 0.04 0.01 0.00 0.02 0.00 0.00 0.00 0.02 0.03 0.03 0.01 0.01 0.01 0.03 0.02 0.03 0.02 0.00 0.00 0.00
0.00 0.00 0.02 0.00 0.00 0.00 0.00 0.00 0.00 0.00 0.00 0.00 0.00 0.00 0.00 0.00 0.00 0.00 0.00 0.00 0.00 0.02 0.00 0.00 0.00 0.01 0.01 0.05 0.03 0.10 0.04 0.03 0.04 0.04 0.01 0.01 0.01 0.04 0.06 0.04 0.02 0.01 0.03 0.02 0.04 0.00 0.00 0.00 0.00
0.00 0.04 0.14 0.01 0.00 0.00 0.00 0.00 0.00 0.00 0.00 0.00 0.00 0.00 0.00 0.00 0.00 0.00 0.00 0.00 0.00 0.04 0.00 0.00 0.00 0.00 0.00 0.02 0.06 0.07 0.04 0.02 0.01 0.02 0.01 0.01 0.01 0.00 0.00 0.00 0.01 0.00 0.01 0.00 0.00 0.00 0.00 0.00 0.00
0.00 0.06 0.06 0.02 0.00 0.00 0.00 0.00 0.00 0.00 0.00 0.00 0.00 0.00 0.00 0.00 0.00 0.00 0.02 0.01 0.00 0.05 0.00 0.00 0.00 0.00 0.01 0.02 0.03 0.02 0.01 0.01 0.00 0.00 0.00 0.00 0.00 0.00 0.01 0.01 0.00 0.00 0.01 0.01 0.00 0.00 0.00 0.00 0.00
0.01 0.07 0.03 0.01 0.00 0.00 0.00 0.00 0.01 0.00 0.00 0.00 0.00 0.00 0.00 0.00 0.00 0.00 0.03 0.02 0.00 0.00 0.00 0.00 0.00 0.00 0.00 0.00 0.01 0.01 0.01 0.01 0.00 0.00 0.00 0.00 0.00 0.00 0.00 0.01 0.00 0.00 0.00 0.00 0.00 0.00 0.00 0.00 0.00
0.00 0.06 0.04 0.01 0.00 0.00 0.00 0.00 0.00 0.00 0.00 0.00 0.02 0.00 0.00 0.00 0.00 0.00 0.00 0.00 0.00 0.01 0.00 0.00 0.00 0.00 0.00 0.00 0.00 0.00 0.00 0.00 0.00 0.00 0.00 0.00 0.00 0.00 0.00 0.01 0.00 0.00 0.00 0.00 0.00 0.00 0.00 0.00 0.00
0.00 0.07 0.05 0.05 0.02 0.02 0.00 0.00 0.00 0.00 0.00 0.00 0.00 0.00 0.00 0.00 0.00 0.00 0.00 0.00 0.00 0.03 0.02 0.01 0.02 0.01 0.01 0.00 0.00 0.00 0.00 0.00 0.00 0.00 0.01 0.00 0.00 0.00 0.00 0.00 0.00 0.00 0.00 0.00 0.00 0.00 0.00 0.00 0.00
0.01 0.11 0.04 0.04 0.00 0.00 0.01 0.02 0.00 0.00 0.00 0.00 0.00 0.00 0.00 0.00 0.00 0.00 0.00 0.00 0.00 0.01 0.03 0.04 0.01 0.00 0.00 0.00 0.02 0.05 0.10 0.03 0.00 0.00 0.00 0.02 0.00 0.00 0.00 0.00 0.00 0.00 0.00 0.00 0.00 0.00 0.00 0.00 0.00
0.00 0.05 0.02 0.00 0.00 0.00 0.00 0.03 0.00 0.00 0.00 0.00 0.00 0.00 0.00 0.00 0.00 0.00 0.00 0.00 0.00 0.00 0.01 0.06 0.01 0.01 0.01 0.00 0.02 0.05 0.10 0.01 0.00 0.00 0.00 0.00 0.00 0.00 0.00 0.00 0.00 0.00 0.00 0.00 0.00 0.00 0.00 0.00 0.00
0.01 0.00 0.00 0.00 0.00 0.00 0.00 0.07 0.02 0.00 0.01 0.00 0.00 0.00 0.00 0.00 0.00 0.00 0.00 0.01 0.00 0.01 0.02 0.00 0.00 0.05 0.05 0.00 0.03 0.01 0.00 0.00 0.00 0.00 0.00 0.00 0.00 0.00 0.00 0.00 0.00 0.00 0.00 0.00 0.00 0.00 0.00 0.00 0.00
0.00 0.00 0.00 0.00 0.00 0.00 0.00 0.04 0.05 0.00 0.00 0.00 0.00 0.00 0.00 0.00 0.00 0.00 0.00 0.00 0.00 0.00 0.01 0.00 0.00 0.01 0.01 0.02 0.00 0.00 0.00 0.00 0.00 0.00 0.00 0.00 0.00 0.00 0.00 0.00 0.00 0.00 0.00 0.00 0.00 0.00 0.00 0.00 0.00
0.02 0.01 0.00 0.00 0.00 0.00 0.00 0.01 0.02 0.00 0.00 0.00 0.00 0.00 0.00 0.00 0.00 0.00 0.00 0.00 0.00 0.00 0.00 0.00 0.00 0.00 0.00 0.00 0.00 0.00 0.01 0.00 0.00 0.00 0.00 0.00 0.00 0.00 0.00 0.00 0.00 0.00 0.00 0.00 0.00 0.00 0.00 0.00 0.00
0.00 0.00 0.00 0.00 0.00 0.00 0.00 0.02 0.08 0.03 0.00 0.00 0.00 0.00 0.00 0.00 0.00 0.00 0.00 0.00 0.00 0.00 0.00 0.00 0.00 0.00 0.00 0.00 0.00 0.00 0.00 0.00 0.00 0.00 0.00 0.00 0.00 0.00 0.00 0.00 0.00 0.00 0.00 0.00 0.00 0.00 0.00 0.00 0.00
0.00 0.01 0.03 0.02 0.00 0.00 0.03 0.13 0.11 0.02 0.01 0.00 0.00 0.00 0.00 0.00 0.00 0.00 0.00 0.00 0.00 0.00 0.00 0.00 0.00 0.00 0.00 0.00 0.00 0.00 0.00 0.00 0.01 0.02 0.00 0.00 0.00 0.00 0.00 0.00 0.00 0.00 0.00 0.00 0.00 0.00 0.00 0.00 0.00
0.00 0.00 0.03 0.07 0.00 0.00 0.04 0.08 0.02 0.04 0.01 0.01 0.00 0.00 0.00 0.00 0.00 0.00 0.00 0.00 0.00 0.00 0.00 0.00 0.00 0.00 0.00 0.00 0.00 0.00 0.00 0.01 0.02 0.03 0.01 0.00 0.00 0.00 0.01 0.00 0.00 0.00 0.00 0.00 0.00 0.00 0.00 0.00 0.00
0.00 0.00 0.00 0.02 0.01 0.01 0.03 0.08 0.02 0.00 0.00 0.01 0.01 0.00 0.00 0.00 0.00 0.00 0.00 0.00 0.00 0.00 0.00 0.00 0.00 0.00 0.00 0.01 0.01 0.00 0.00 0.00 0.00 0.01 0.00 0.00 0.00 0.00 0.04 0.04 0.00 0.02 0.08 0.03 0.01 0.00 0.00 0.00 0.00
0.00 0.00 0.00 0.00 0.00 0.00 0.00 0.00 0.01 0.00 0.00 0.04 0.01 0.00 0.00 0.00 0.00 0.00 0.00 0.00 0.00 0.00 0.00 0.00 0.00 0.01 0.00 0.00 0.00 0.02 0.00 0.00 0.00 0.01 0.00 0.00 0.00 0.00 0.02 0.03 0.00 0.04 0.12 0.08 0.05 0.01 0.00 0.00 0.00
0.00 0.00 0.00 0.00 0.00 0.00 0.00 0.00 0.00 0.00 0.00 0.00 0.01 0.03 0.01 0.00 0.00 0.00 0.00 0.00 0.00 0.00 0.00 0.00 0.02 0.02 0.00 0.00 0.01 0.01 0.00 0.01 0.00 0.00 0.00 0.00 0.00 0.00 0.01 0.00 0.03 0.12 0.07 0.03 0.07 0.08 0.06 0.06 0.00
0.00 0.00 0.00 0.00 0.00 0.00 0.00 0.00 0.00 0.00 0.00 0.00 0.00 0.01 0.01 0.00 0.00 0.00 0.00 0.00 0.00 0.00 0.00 0.00 0.03 0.03 0.00 0.00 0.01 0.01 0.03 0.01 0.02 0.03 0.00 0.00 0.00 0.00 0.00 0.00 0.04 0.11 0.05 0.05 0.02 0.02 0.10 0.06 0.03
0.00 0.00 0.00 0.00 0.00 0.00 0.00 0.01 0.00 0.00 0.00 0.00 0.00 0.00 0.02 0.00 0.00 0.00 0.00 0.00 0.00 0.00 0.00 0.00 0.01 0.02 0.02 0.03 0.02 0.03 0.01 0.01 0.01 0.00 0.00 0.00 0.00 0.00 0.00 0.00 0.00 0.01 0.06 0.13 0.01 0.01 0.05 0.05 0.12
0.00 0.00 0.00 0.00 0.00 0.00 0.00 0.00 0.00 0.00 0.00 0.00 0.00 0.00 0.01 0.00 0.00 0.00 0.00 0.00 0.00 0.00 0.00 0.00 0.00 0.04 0.05 0.10 0.05 0.02 0.00 0.00 0.00 0.02 0.02 0.01 0.00 0.00 0.00 0.00 0.00 0.00 0.00 0.01 0.00 0.01 0.01 0.03 0.12
0.00 0.00 0.00 0.00 0.00 0.00 0.00 0.00 0.00 0.00 0.00 0.01 0.00 0.00 0.01 0.01 0.00 0.00 0.00 0.00 0.00 0.00 0.00 0.00 0.00 0.03 0.07 0.05 0.03 0.02 0.01 0.02 0.05 0.05 0.05 0.00 0.00 0.00 0.00 0.00 0.00 0.00 0.00 0.00 0.00 0.01 0.00 0.00 0.02
0.00 0.00 0.00 0.00 0.00 0.00 0.00 0.00 0.00 0.00 0.00 0.00 0.00 0.00 0.00 0.00 0.00 0.00 0.00 0.00 0.00 0.00 0.00 0.00 0.00 0.01 0.04 0.04 0.01 0.04 0.02 0.03 0.04 0.02 0.00 0.00 0.00 0.00 0.01 0.01 0.01 0.00 0.01 0.01 0.00 0.01 0.01 0.01 0.01
0.00 0.00 0.00 0.00 0.00 0.00 0.00 0.00 0.00 0.00 0.00 0.00 0.00 0.00 0.00 0.00 0.00 0.00 0.00 0.00 0.00 0.00 0.00 0.00 0.00 0.00 0.01 0.06 0.04 0.05 0.05 0.02 0.00 0.00 0.00 0.00 0.00 0.00 0.01 0.00 0.00 0.00 0.01 0.00 0.01 0.00 0.00 0.00 0.00
0.00 0.00 0.00 0.00 0.00 0.00 0.00 0.00 0.00 0.00 0.00 0.00 0.00 0.00 0.00 0.00 0.00 0.00 0.00 0.00 0.00 0.00 0.00 0.00 0.00 0.00 0.00 0.01 0.03 0.05 0.04 0.02 0.01 0.01 0.00 0.00 0.00 0.00 0.00 0.01 0.01 0.00 0.00 0.00 0.01 0.00 0.01 0.01 0.01
0.00 0.00 0.00 0.00 0.00 0.00 0.00 0.00 0.01 0.00 0.00 0.00 0.00 0.00 0.00 0.00 0.00 0.00 0.00 0.00 0.00 0.00 0.00 0.00 0.00 0.00 0.00 0.00 0.00 0.00 0.01 0.01 0.01 0.05 0.04 0.02 0.03 0.01 0.03 0.01 0.02 0.01 0.02 0.01 0.01 0.00 0.00 0.02 0.01
0.00 0.00 0.00 0.00 0.00 0.00 0.00 0.02 0.00 0.00 0.00 0.00 0.02 0.01 0.00 0.00 0.00 0.02 0.01 0.02 0.04 0.00 0.00 0.00 0.00 0.00 0.00 0.00 0.00 0.00 0.00 0.00 0.00 0.03 0.04 0.07 0.09 0.04 0.08 0.03 0.02 0.03 0.04 0.04 0.04 0.01 0.06 0.06 0.04
0.00 0.00 0.00 0.00 0.00 0.00 0.00 0.00 0.00 0.00 0.00 0.00 0.04 0.01 0.00 0.01 0.03 0.00 0.01 0.01 0.03 0.02 0.00 0.00 0.00 0.00 0.00 0.00 0.00 0.00 0.00 0.00 0.00 0.00 0.02 0.06 0.17 0.10 0.03 0.09 0.10 0.07 0.10 0.12 0.04 0.04 0.08 0.06 0.06
MSLP
1007.28 1007.35 1007.32 1005.89 1006.53 1005.53 1002.91 1002.60 1002.67 1004.07 1003.60 1004.13 1004.92 1004.92 1005.82 1006.16 1006.94 1009.88 1012.07 1012.85 1013.37 1013.78 1014.39 1014.66 1014.86 1015.14 1015.46 1015.74 1016.11 1016.24 1016.05 1016.10 1016.30 1016.39 1016.43 1016.41 1016.41 1016.53 1016.82 1016.92 1016.92 1016.97 1017.03 1016.89 1017.04 1017.06 1017.13 1017.21 1017.22
1006.73 1006.39 1005.94 1006.28 1006.82 1004.39 1002.61 1002.49 1002.88 1003.64 1004.59 1005.25 1005.24 1005.33 1006.09 1007.07 1007.92 1009.65 1011.45 1012.44 1012.41 1013.16 1014.17 1014.69 1014.98 1015.24 1015.56 1015.81 1016.19 1016.35 1016.37 1016.35 1016.47 1016.51 1016.55 1016.63 1016.71 1016.81 1017.01 1017.19 1017.09 1017.10 1017.32 1017.22 1017.27 1017.49 1017.34 1017.47 1017.39
1007.37 1006.73 1005.96 1005.92 1005.78 1003.76 1002.35 1002.54 1003.24 1004.25 1005.71 1006.31 1005.36 1005.88 1006.70 1007.54 1008.51 1009.60 1011.22 1012.28 1012.71 1013.11 1014.09 1014.90 1015.06 1015.19 1015.54 1015.88 1016.34 1016.47 1016.42 1016.52 1016.70 1016.78 1016.79 1016.93 1017.03 1017.23 1017.13 1017.47 1017.34 1017.31 1017.45 1017.52 1017.57 1017.47 1017.59 1017.47 1017.57
1006.56 1005.73 1006.52 1005.30 1004.40 1002.36 1002.05 1002.72 1003.49 1004.20 1005.28 1005.77 1005.76 1006.52 1007.20 1007.66 1008.87 1010.36 1011.16 1012.16 1013.24 1014.28 1014.80 1015.38 1015.20 1015.25 1015.51 1015.97 1016.22 1016.55 1016.58 1016.74 1016.86 1016.97 1017.07 1017.17 1017.27 1017.55 1017.36 1017.64 1017.49 1017.68 1017.74 1017.84 1017.78 1017.72 1017.80 1017.70 1017.71
1006.07 1007.02 1008.39 1005.75 1004.05 1002.64 1002.48 1002.94 1003.67 1004.07 1004.75 1005.46 1006.02 1007.01 1007.71 1008.16 1009.12 1010.29 1010.78 1012.39 1013.99 1014.84 1014.53 1015.40 1015.23 1015.27 1015.67 1016.03 1016.36 1016.60 1016.77 1016.87 1017.07 1017.10 1017.29 1017.45 1017.48 1017.57 1017.78 1017.79 1017.76 1017.84 1017.82 1018.01 1018.05 1018.14 1018.11 1018.03 1017.96
1006.06 1009.81 1009.64 1006.87 1004.53 1003.23 1003.03 1003.24 1003.73 1004.18 1004.84 1005.73 1006.42 1007.49 1008.16 1008.61 1009.04 1009.60 1011.01 1012.18 1013.43 1014.36 1013.96 1014.88 1015.15 1015.31 1015.65 1016.09 1016.48 1016.65 1016.81 1016.93 1017.14 1017.24 1017.47 1017.62 1017.65 1017.81 1018.00 1018.11 1017.94 1018.04 1018.12 1018.20 1018.36 1018.38 1018.35 1018.34 1018.09
1006.03 1008.90 1009.05 1007.67 1006.15 1004.09 1004.04 1004.66 1004.27 1004.01 1004.36 1004.94 1006.58 1007.37 1008.33 1008.73 1009.25 1010.21 1010.77 1011.08 1012.47 1012.83 1013.65 1014.17 1014.83 1015.25 1015.62 1016.03 1016.30 1016.50 1016.76 1016.95 1017.21 1017.34 1017.48 1017.68 1017.84 1018.06 1018.27 1018.24 1018.20 1018.24 1018.33 1018.34 1018.46 1018.43 1018.41 1018.37 1018.13
1004.39 1007.50 1007.83 1008.23 1007.93 1005.56 1004.70 1004.79 1003.84 1004.09 1004.62 1005.62 1007.22 1007.38 1008.05 1008.74 1009.38 1009.89 1010.39 1011.22 1012.62 1012.62 1013.12 1013.54 1014.27 1014.87 1015.22 1015.76 1016.13 1016.36 1016.62 1016.86 1017.07 1017.25 1017.38 1017.64 1017.84 1018.15 1018.35 1018.34 1018.43 1018.48 1018.49 1018.40 1018.33 1018.37 1018.38 1018.27 1018.06
1004.12 1006.40 1008.14 1008.72 1008.22 1008.50 1006.02 1005.19 1004.87 1004.52 1004.79 1005.77 1006.54 1006.61 1007.59 1008.68 1009.26 1010.01 1010.32 1011.42 1013.21 1014.66 1013.85 1013.05 1013.97 1015.11 1015.23 1015.74 1016.38 1016.81 1016.91 1017.00 1017.03 1017.09 1017.21 1017.41 1017.62 1017.98 1018.29 1018.36 1018.46 1018.53 1018.48 1018.24 1018.05 1018.30 1018.32 1018.19 1018.07
1004.39 1006.81 1007.91 1008.16 1008.53 1008.14 1007.30 1006.39 1005.36 1004.85 1005.20 1006.17 1006.53 1007.12 1008.10 1008.72 1009.16 1009.96 1010.62 1011.33 1012.26 1014.39 1014.68 1014.56 1015.18 1015.24 1015.32 1015.50 1016.97 1017.32 1017.41 1017.30 1016.80 1016.76 1017.10 1017.56 1017.47 1017.76 1018.10 1018.36 1018.41 1018.42 1018.22 1018.07 1017.93 1018.10 1018.16 1018.01 1017.53
1004.85 1005.38 1006.14 1006.81 1007.57 1007.91 1007.55 1007.39 1007.22 1005.87 1005.80 1005.67 1006.62 1007.76 1008.39 1008.77 1009.19 1009.78 1010.43 1010.70 1011.93 1013.06 1014.26 1013.96 1014.37 1015.56 1015.45 1015.56 1016.86 1017.76 1017.18 1016.77 1016.82 1016.52 1016.69 1016.86 1017.36 1017.75 1017.95 1018.22 1018.25 1018.25 1017.95 1017.90 1017.69 1017.64 1017.69 1017.17 1017.13
1004.73 1005.74 1006.14 1006.56 1007.54 1007.74 1008.34 1008.85 1008.28 1007.51 1007.99 1007.13 1006.86 1007.98 1008.32 1008.66 1008.90 1009.30 1010.36 1011.46 1011.87 1013.37 1013.99 1014.21 1014.73 1015.30 1015.54 1015.42 1016.61 1016.31 1016.09 1016.28 1016.51 1016.43 1016.46 1016.79 1017.19 1017.29 1017.47 1017.67 1017.60 1017.67 1017.27 1017.44 1016.87 1016.72 1016.37 1016.15 1015.85
1004.61 1005.37 1006.09 1006.20 1006.97 1007.89 1008.28 1009.03 1009.04 1008.05 1007.34 1006.92 1007.19 1007.82 1008.04 1008.76 1008.93 1009.08 1009.71 1010.86 1011.37 1012.78 1013.32 1014.10 1015.17 1015.35 1014.98 1015.60 1016.15 1015.78 1015.69 1015.66 1016.03 1016.24 1016.38 1016.68 1016.94 1017.26 1017.05 1017.07 1017.23 1016.89 1016.57 1016.43 1016.23 1016.30 1016.22 1016.16 1016.04
1004.61 1005.39 1005.62 1006.06 1006.97 1007.78 1008.29 1009.37 1010.04 1007.48 1006.61 1006.96 1007.36 1007.50 1008.11 1008.51 1008.62 1009.23 1009.71 1010.42 1011.22 1012.34 1013.28 1014.23 1014.79 1014.91 1014.62 1015.13 1014.72 1015.84 1016.09 1015.80 1015.89 1015.96 1016.14 1016.48 1016.84 1017.07 1016.94 1016.96 1016.68 1016.41 1016.49 1016.04 1016.09 1016.23 1016.22 1016.22 1016.35
1004.09 1004.97 1005.43 1006.08 1006.86 1007.62 1007.77 1010.22 1010.62 1009.20 1008.38 1007.31 1007.28 1007.19 1007.91 1008.14 1008.47 1009.01 1009.53 1010.42 1011.25 1012.10 1013.08 1014.21 1014.67 1014.80 1014.97 1014.80 1014.77 1016.16 1016.31 1016.26 1016.14 1016.50 1016.52 1016.53 1016.81 1016.78 1016.66 1016.72 1016.39 1016.24 1016.22 1016.17 1016.20 1016.24 1015.99 1016.42 1016.42
1003.02 1004.22 1005.18 1005.57 1006.56 1007.40 1007.99 1010.17 1010.88 1009.30 1009.57 1007.82 1007.34 1007.25 1007.93 1007.96 1008.39 1008.99 1009.67 1010.27 1011.13 1011.95 1012.84 1013.80 1014.27 1014.98 1015.13 1014.95 1014.84 1015.25 1015.46 1016.10 1016.71 1016.98 1016.71 1016.68 1016.75 1016.66 1016.54 1016.37 1016.35 1016.01 1016.14 1016.06 1016.08 1016.12 1016.04 1016.07 1016.30
1002.54 1002.99 1004.86 1006.26 1006.32 1007.13 1008.09 1010.32 1011.29 1011.13 1010.47 1008.65 1007.91 1007.42 1007.76 1008.19 1008.62 1008.97 1009.60 1010.31 1011.00 1012.01 1012.91 1013.70 1014.48 1014.80 1015.27 1015.18 1015.15 1015.23 1015.57 1015.91 1016.61 1017.16 1016.96 1016.67 1016.62 1016.47 1016.57 1017.00 1016.58 1016.36 1016.41 1016.17 1015.65 1015.23 1014.93 1015.26 1015.77
1000.99 1001.91 1003.19 1004.97 1005.72 1006.52 1007.75 1008.84 1009.69 1009.82 1009.95 1009.72 1009.28 1008.77 1007.81 1008.18 1008.68 1008.88 1009.40 1010.17 1011.13 1012.15 1013.03 1013.84 1014.41 1015.00 1015.63 1015.73 1015.58 1015.51 1015.44 1016.47 1016.60 1016.94 1016.57 1016.50 1016.32 1016.40 1017.02 1017.48 1016.76 1016.57 1018.05 1017.49 1016.31 1016.34 1015.85 1015.98 1015.96
1000.92 1001.87 1002.55 1004.01 1004.78 1005.35 1006.31 1006.96 1007.72 1008.25 1009.18 1010.24 1010.64 1009.01 1008.07 1007.93 1008.38 1008.80 1008.98 1009.92 1011.07 1012.22 1013.15 1013.57 1014.50 1014.89 1015.53 1015.67 1015.84 1016.15 1015.97 1016.53 1017.03 1016.92 1016.60 1016.42 1016.34 1016.55 1017.21 1016.99 1016.17 1017.53 1019.01 1017.78 1018.03 1018.34 1017.73 1017.14 1016.52
1000.66 1001.39 1002.06 1002.86 1003.97 1004.74 1005.04 1005.24 1005.79 1006.60 1007.43 1008.52 1009.22 1009.05 1008.85 1007.51 1008.36 1008.35 1008.82 1009.53 1010.57 1012.00 1013.00 1013.59 1014.25 1015.08 1015.31 1015.40 1015.85 1015.99 1016.11 1016.33 1016.74 1016.28 1016.31 1016.16 1016.20 1016.65 1017.16 1017.00 1017.33 1017.48 1018.41 1018.49 1018.70 1018.12 1019.20 1018.08 1017.51
1001.00 1001.01 1001.18 1002.06 1003.61 1004.07 1004.49 1004.53 1004.40 1004.95 1006.45 1007.43 1008.19 1009.31 1008.51 1008.74 1007.57 1008.18 1008.31 1009.15 1010.11 1011.48 1012.66 1013.56 1014.25 1014.82 1014.99 1015.21 1015.94 1015.83 1016.16 1016.51 1017.09 1016.62 1016.25 1015.96 1016.03 1016.58 1016.87 1016.90 1016.98 1016.98 1016.82 1018.05 1018.65 1018.38 1019.31 1019.66 1019.43
1000.74 1000.74 1001.21 1001.80 1002.88 1003.20 1003.95 1003.93 1002.89 1003.40 1004.62 1005.91 1006.90 1008.18 1008.00 1007.57 1006.80 1007.33 1007.77 1008.62 1009.52 1010.91 1011.97 1013.12 1013.97 1014.76 1014.92 1015.17 1015.23 1015.58 1015.63 1016.07 1015.92 1015.98 1015.89 1015.94 1015.96 1016.27 1016.43 1016.61 1016.74 1016.56 1018.61 1017.41 1018.33 1017.82 1018.21 1019.17 1019.12
1000.69 1000.74 1001.20 1001.98 1002.55 1002.93 1003.08 1003.13 1001.65 1002.21 1003.10 1004.21 1005.46 1006.29 1006.78 1006.67 1006.26 1006.61 1006.97 1007.79 1008.73 1010.14 1011.24 1012.24 1013.43 1014.38 1014.69 1015.29 1015.36 1015.47 1015.62 1015.79 1015.89 1016.05 1016.03 1016.03 1015.92 1015.90 1016.29 1016.34 1016.35 1016.12 1016.54 1017.41 1016.10 1015.88 1016.81 1018.13 1018.59
1001.25 1001.29 1001.82 1002.09 1001.98 1001.90 1001.48 1001.45 1000.71 1001.22 1002.02 1003.25 1004.32 1004.93 1005.53 1006.31 1006.34 1006.09 1006.72 1007.15 1008.01 1009.59 1010.50 1011.60 1012.84 1013.85 1014.64 1015.21 1015.53 1015.55 1015.55 1016.10 1016.04 1016.65 1016.24 1016.18 1016.11 1016.07 1015.84 1015.67 1015.95 1016.01 1015.93 1015.79 1015.69 1015.85 1016.14 1017.05 1017.65
1001.83 1001.62 1001.46 1001.33 1000.99 1000.94 1000.40 1000.36 1000.21 1001.64 1002.42 1003.02 1004.24 1003.75 1004.57 1005.61 1006.14 1005.88 1006.79 1006.76 1007.58 1008.73 1009.88 1011.01 1012.16 1013.36 1014.17 1014.72 1015.11 1015.50 1015.53 1015.86 1016.14 1016.17 1016.09 1016.11 1016.03 1016.00 1016.15 1015.99 1016.00 1016.07 1016.10 1016.25 1016.24 1016.61 1016.84 1017.16 1017.27
1001.21 1001.34 1000.70 1000.01 1000.02 1000.86 1001.17 1001.05 1001.97 1002.46 1002.31 1002.22 1003.58 1004.31 1003.64 1004.78 1005.27 1005.42 1006.32 1007.24 1007.59 1008.16 1009.03 1010.37 1011.43 1012.75 1013.56 1014.27 1014.69 1015.09 1015.41 1015.57 1015.43 1015.47 1015.33 1015.35 1015.53 1015.77 1016.00 1016.20 1016.07 1016.16 1016.34 1016.59 1016.52 1016.88 1017.06 1017.10 1017.21
1000.70 1000.72 1000.78 1000.45 1000.13 1000.07 1000.01 1001.03 1002.18 1002.65 1002.28 1001.96 1001.53 1002.06 1003.08 1003.95 1004.85 1005.25 1005.32 1006.78 1007.03 1008.11 1008.55 1009.46 1010.91 1011.90 1012.78 1013.63 1014.25 1014.74 1015.11 1015.16 1014.94 1015.11 1015.24 1015.26 1015.30 1015.58 1015.96 1015.94 1016.22 1016.14 1016.17 1016.34 1016.64 1016.85 1016.91 1016.89 1016.97
1000.67 1000.99 1001.09 1000.95 1000.93 1000.60 1000.39 1002.14 1003.51 1003.64 1002.99 1002.63 1002.21 1002.51 1003.17 1003.75 1004.58 1005.53 1005.60 1006.62 1006.95 1007.32 1008.23 1009.03 1010.01 1011.03 1011.92 1012.73 1013.58 1014.11 1014.70 1014.93 1015.09 1015.22 1015.31 1015.29 1015.34 1015.53 1015.69 1015.72 1015.97 1016.21 1016.23 1016.34 1016.59 1016.76 1016.92 1016.93 1017.00
1000.41 1000.84 1001.47 1001.54 1002.28 1001.95 1001.88 1003.98 1004.57 1004.22 1003.39 1003.21 1004.15 1004.40 1004.00 1004.49 1004.85 1005.98 1006.60 1006.98 1008.42 1007.27 1007.63 1008.35 1009.43 1010.20 1011.21 1011.99 1012.61 1013.16 1013.69 1014.23 1014.62 1015.11 1015.34 1015.50 1015.68 1015.76 1015.94 1015.93 1015.82 1015.89 1016.09 1016.38 1016.70 1016.81 1016.89 1017.10 1017.13
1000.00 1000.22 1000.88 1001.64 1001.92 1002.34 1003.23 1003.37 1003.62 1003.48 1003.14 1003.88 1005.01 1005.09 1005.77 1005.75 1006.77 1006.53 1007.10 1007.49 1008.90 1009.16 1007.28 1007.72 1008.38 1009.43 1010.40 1011.16 1011.77 1012.42 1012.97 1013.41 1014.00 1014.35 1014.67 1015.16 1015.43 1015.64 1015.80 1015.88 1015.78 1015.85 1016.13 1016.17 1016.32 1016.38 1016.31 1016.47 1016.64
Thickness
5819 5817 5812 5810 5765 5772 5791 5791 5809 5782 5794 5806 5800 5793 5779 5784 5767 5731 5756 5754 5750 5745 5742 5742 5740 5737 5736 5733 5731 5732 5737 5739 5739 5740 5742 5747 5751 5754 5752 5751 5753 5754 5755 5758 5758 5758 5760 5758 5759
5823 5823 5817 5792 5759 5774 5788 5807 5793 5799 5798 5798 5798 5794 5780 5765 5779 5768 5758 5761 5761 5754 5746 5742 5740 5737 5734 5733 5731 5731 5733 5737 5739 5741 5743 5746 5749 5751 5750 5749 5753 5755 5755 5758 5759 5757 5760 5759 5760
5818 5821 5796 5755 5760 5766 5785 5805 5801 5801 5789 5779 5789 5795 5781 5768 5778 5772 5770 5764 5758 5753 5745 5741 5739 5736 5733 5733 5731 5732 5734 5735 5737 5740 5744 5747 5748 5747 5752 5747 5753 5757 5757 5757 5758 5761 5759 5761 5761
5816 5817 5798 5781 5776 5812 5808 5807 5808 5799 5797 5796 5795 5774 5787 5794 5779 5775 5774 5764 5753 5745 5734 5736 5741 5741 5739 5734 5734 5733 5735 5737 5739 5742 5745 5746 5746 5746 5751 5749 5755 5755 5756 5757 5758 5760 5760 5762 5762
5818 5793 5748 5767 5792 5814 5820 5818 5812 5799 5799 5794 5793 5770 5771 5788 5790 5782 5777 5762 5748 5743 5746 5736 5745 5746 5742 5739 5736 5734 5737 5740 5741 5745 5745 5745 5747 5748 5749 5751 5754 5756 5758 5757 5759 5758 5759 5761 5762
5795 5746 5727 5770 5795 5814 5820 5822 5813 5805 5801 5793 5784 5772 5770 5791 5788 5787 5778 5766 5762 5752 5756 5746 5750 5748 5745 5741 5739 5739 5741 5744 5744 5745 5744 5746 5748 5749 5749 5750 5754 5756 5757 5758 5758 5758 5759 5760 5764
5786 5745 5745 5769 5777 5804 5807 5807 5800 5808 5804 5798 5795 5768 5775 5783 5789 5784 5781 5781 5768 5762 5757 5759 5754 5751 5747 5745 5744 5745 5744 5745 5745 5746 5748 5748 5749 5749 5750 5753 5755 5756 5757 5759 5758 5760 5761 5763 5767
5817 5760 5750 5769 5753 5789 5812 5809 5825 5812 5800 5811 5796 5770 5766 5784 5790 5789 5787 5781 5767 5766 5763 5765 5759 5756 5753 5750 5749 5749 5749 5748 5747 5748 5751 5751 5752 5751 5752 5755 5756 5756 5757 5760 5762 5762 5764 5767 5769
5834 5767 5757 5748 5768 5748 5804 5803 5818 5827 5811 5803 5797 5799 5797 5795 5794 5785 5783 5776 5758 5747 5757 5767 5757 5749 5754 5753 5749 5745 5746 5748 5750 5751 5753 5754 5755 5754 5754 5756 5757 5758 5760 5764 5767 5766 5767 5770 5771
5805 5753 5758 5776 5775 5764 5784 5796 5807 5810 5806 5794 5796 5802 5799 5796 5791 5780 5776 5770 5770 5751 5742 5756 5747 5750 5752 5756 5741 5738 5739 5743 5753 5755 5755 5755 5758 5757 5758 5759 5760 5762 5765 5768 5770 5770 5771 5774 5778
5808 5780 5786 5798 5798 5790 5786 5786 5796 5800 5794 5804 5791 5789 5793 5792 5789 5784 5780 5781 5772 5769 5762 5765 5760 5745 5750 5753 5740 5742 5741 5750 5752 5757 5759 5758 5760 5761 5762 5763 5764 5766 5769 5771 5775 5776 5777 5783 5785
5799 5804 5803 5801 5796 5789 5771 5775 5779 5784 5776 5802 5808 5799 5795 5791 5791 5789 5781 5773 5775 5765 5765 5762 5762 5759 5760 5755 5741 5748 5757 5754 5755 5760 5762 5763 5763 5765 5768 5769 5771 5773 5778 5778 5784 5787 5789 5792 5796
5805 5806 5805 5810 5804 5792 5787 5774 5769 5786 5801 5813 5810 5802 5798 5793 5793 5796 5793 5785 5784 5772 5770 5764 5757 5760 5765 5756 5753 5757 5761 5763 5762 5762 5763 5765 5766 5768 5773 5774 5775 5781 5786 5789 5793 5792 5794 5795 5795
5809 5806 5807 5809 5800 5794 5785 5775 5767 5800 5817 5808 5805 5802 5798 5796 5797 5794 5792 5788 5785 5780 5774 5769 5761 5759 5764 5764 5771 5758 5758 5762 5765 5766 5767 5767 5769 5772 5775 5778 5783 5788 5790 5795 5796 5795 5797 5797 5795
5815 5796 5802 5800 5798 5786 5798 5752 5759 5776 5792 5803 5802 5805 5800 5801 5803 5797 5797 5790 5787 5783 5779 5770 5768 5766 5766 5770 5768 5755 5757 5758 5764 5763 5765 5769 5771 5775 5778 5783 5788 5792 5794 5796 5797 5797 5800 5798 5796
5811 5797 5775 5801 5797 5793 5789 5741 5748 5775 5777 5793 5802 5803 5799 5803 5803 5802 5800 5797 5792 5786 5781 5776 5775 5768 5766 5770 5771 5765 5763 5762 5760 5760 5765 5769 5773 5777 5781 5787 5791 5795 5797 5799 5801 5801 5802 5801 5799
5806 5782 5775 5760 5798 5788 5781 5741 5741 5758 5771 5782 5796 5804 5800 5799 5800 5803 5802 5799 5794 5787 5781 5778 5774 5771 5768 5768 5770 5770 5771 5769 5763 5760 5764 5769 5774 5780 5782 5783 5787 5790 5791 5797 5805 5810 5814 5809 5804
5798 5800 5796 5770 5789 5788 5773 5766 5766 5775 5773 5770 5777 5785 5802 5798 5798 5804 5804 5802 5796 5789 5782 5778 5776 5772 5767 5767 5769 5770 5774 5769 5766 5763 5769 5773 5777 5780 5779 5777 5780 5783 5771 5777 5794 5800 5808 5806 5805
5816 5802 5796 5789 5798 5791 5779 5780 5782 5786 5779 5764 5754 5782 5797 5799 5803 5806 5808 5805 5797 5789 5782 5780 5774 5774 5770 5769 5767 5765 5768 5770 5765 5766 5770 5775 5778 5779 5774 5781 5788 5780 5768 5758 5780 5777 5783 5793 5800
5812 5799 5795 5800 5801 5791 5788 5787 5794 5794 5788 5786 5775 5779 5781 5803 5798 5805 5807 5805 5800 5790 5784 5782 5778 5774 5773 5775 5772 5772 5772 5773 5769 5772 5774 5778 5780 5777 5775 5780 5781 5783 5782 5774 5771 5788 5771 5789 5794
5798 5796 5804 5793 5789 5796 5785 5778 5791 5804 5793 5791 5791 5777 5783 5783 5800 5803 5807 5805 5803 5793 5787 5782 5779 5777 5779 5779 5773 5776 5775 5771 5762 5772 5777 5782 5783 5780 5780 5783 5783 5787 5794 5779 5775 5788 5771 5768 5771
5783 5815 5807 5796 5778 5760 5786 5738 5792 5803 5797 5791 5791 5782 5787 5796 5812 5811 5810 5807 5805 5798 5795 5788 5784 5778 5780 5780 5779 5777 5776 5772 5779 5780 5784 5784 5786 5785 5785 5784 5783 5788 5766 5755 5781 5793 5784 5776 5756
5793 5814 5801 5792 5779 5775 5774 5761 5797 5808 5800 5798 5797 5798 5799 5803 5814 5814 5816 5814 5812 5806 5799 5795 5788 5782 5782 5779 5779 5780 5779 5780 5783 5781 5783 5785 5788 5789 5788 5788 5789 5794 5792 5782 5800 5808 5805 5788 5777
5806 5795 5791 5789 5785 5758 5788 5786 5796 5806 5801 5799 5800 5804 5807 5798 5799 5817 5818 5821 5815 5809 5806 5799 5791 5785 5783 5780 5779 5779 5779 5777 5779 5777 5780 5784 5787 5789 5792 5794 5791 5791 5795 5799 5801 5802 5804 5795 5790
5786 5777 5751 5751 5759 5758 5806 5800 5809 5807 5808 5804 5785 5805 5811 5804 5803 5814 5808 5814 5815 5810 5807 5802 5794 5785 5785 5783 5783 5780 5781 5780 5780 5781 5782 5784 5786 5789 5790 5793 5794 5794 5794 5794 5796 5795 5795 5793 5792
5778 5778 5764 5752 5763 5764 5797 5767 5779 5803 5814 5817 5797 5794 5816 5809 5809 5813 5810 5807 5811 5813 5811 5806 5797 5789 5787 5785 5784 5783 5783 5782 5786 5788 5791 5792 5791 5791 5792 5792 5793 5793 5793 5792 5793 5793 5793 5794 5792
5780 5770 5797 5776 5793 5785 5806 5799 5799 5797 5800 5812 5822 5819 5814 5811 5810 5811 5818 5810 5813 5810 5812 5810 5800 5795 5792 5787 5786 5785 5784 5785 5788 5790 5791 5792 5794 5794 5791 5791 5792 5792 5793 5793 5793 5792 5793 5794 5794
5785 5792 5760 5773 5743 5748 5790 5762 5743 5766 5783 5798 5804 5810 5805 5811 5808 5800 5809 5805 5814 5815 5812 5811 5807 5800 5796 5793 5789 5787 5785 5787 5787 5788 5788 5790 5791 5791 5791 5792 5791 5791 5792 5791 5791 5791 5790 5791 5791
5775 5768 5770 5772 5757 5741 5749 5724 5760 5765 5784 5789 5780 5778 5792 5798 5801 5797 5797 5798 5793 5810 5812 5811 5807 5804 5799 5796 5794 5792 5790 5788 5788 5785 5786 5786 5787 5787 5786 5787 5789 5791 5791 5789 5788 5788 5787 5784 5784
5792 5781 5777 5745 5747 5765 5749 5748 5779 5784 5793 5786 5767 5774 5778 5778 5771 5784 5783 5786 5781 5781 5809 5811 5811 5807 5803 5800 5797 5794 5793 5792 5789 5789 5789 5787 5785 5786 5786 5786 5787 5787 5786 5787 5786 5787 5788 5786 5783